Погода в Фарго

США     46°52′36″N   96°48′40″W
темп.,
°C
ветер,
м/с
пор.,
м/с
влажн.,
%
обл.,
%
осадки,
мм/ч
давл.,
гПа
погр.,
м
31 июля, сб
сб3101:00+21юз513591 0.0 1016298
04:00+18з38720 0.0 1016152
07:00+18с512680 0.0 1018322
10:00+26с811330 0.0 10191555
13:00+29с911180 0.0 10182715
16:00+30ссз911185 0.0 10173095
19:00+29ссз810170 0.0 10172769
22:00+20ссв48290 0.0 1019112
1 августа, вс
вс101:00+17с410380 0.0 1021167
04:00+13с33530 0.0 102239
07:00+13с34610 0.0 102380
10:00+23с45340 0.0 1023675
13:00+28с45240 0.0 10212377
16:00+30с44205 0.0 10192862
19:00+29ссз34200 0.0 10182837
22:00+21св22340 0.0 101822
2 августа, пн
пн201:00+17юв36480 0.0 101984
04:00+16ю36520 0.0 102085
07:00+15ююз365182 0.0 1020111
10:00+26зюз23260 0.0 1019500
13:00+33з24172 0.0 10163055
16:00+35з35145 0.0 10143801
19:00+35юз3614100 0.0 10123303
22:00+26зюз332374 0.0 101326
3 августа, вт
вт301:00+21з01312 0.0 101320
04:00+19юв33362 0.0 101427
07:00+19в343413 0.0 101568
10:00+29вюв23223 0.0 1015420
13:00+36вюв2314100 0.0 10132788
16:00+38сз0312100 0.0 10113714
19:00+36всв0113100 0.0 10103366
22:00+28юв51225100 0.0 1011210
4 августа, ср
ср401:00+25ю51526100 0.0 1012293
04:00+24ю51431100 0.0 1012337
07:00+21ю484067 0.0 1012145
10:00+32юз571989 0.0 1011581
13:00+39юз7812100 0.0 10093690
16:00+39юз9912100 0.0 10074055
19:00+32ссз5724100 0.0 1006145
22:00+29ююз51336100 0.1 1007637